[[{"header":{"parameterUnit":"m.s-1","parameterCategory":2,"la1":30.2991,"la2":30.254,"lo1":-89.0895,"lo2":-89.0444,"dx":0.0017,"dy":0.0017,"nx":28,"ny":28,"refTime":"2023-01-27T09:00:00:Z","depth":"0","parameterNumber":2,"parameterNumberName":"U-component_of_CURRENTS"},"data":[0,0,0,0,0,0,0,0,0,0,0,0,0,0,0,0,0,0,0,0,0,0,0,0,0,0,0,0,0,0,0,0,0,0,0,0,0,0,0,0,0,0,0,0,0,0,0,0,0,0,0,0,0,0,0,0,0,0,0.2876,0.2876,0,0.2823,0.2822,0.2821,0.2789,0.2789,0.2789,0.2789,0.2771,0.277,0.2769,0,0,0,0,0,0,0,0,0,0,0,0,0,0.2906,0.2906,0.2876,0.2876,0.2875,0.2823,0.2822,0.2821,0.2789,0.2789,0.2789,0.2789,0.2771,0.277,0.2769,0,0,0,0,0,0,0,0,0,0,0,0,0,0.2874,0.2906,0.2876,0.2855,0.2853,0.2823,0.2822,0.2821,0.2789,0.2789,0.2789,0.2789,0.2771,0.277,0.2769,0.2759,0,0,0.2766,0.2766,0,0,0,0,0,0,0,0,0.2876,0.2873,0.2859,0.2857,0.2854,0.2816,0.2826,0.2803,0.2789,0.281,0.2789,0.279,0.2791,0.2788,0.2773,0.2759,0.2758,0.2766,0.2766,0.2765,0.2765,0,0,0,0,0,0,0,0.2879,0.2875,0.2852,0.2858,0.2856,0.2834,0.283,0.2821,0.2798,0.2808,0.2806,0.2806,0.2789,0.2774,0.2772,0.2757,0.2766,0.2765,0.2765,0.2764,0.2777,0.2778,0,0,0,0,0,0,0.2894,0.2877,0.2853,0.285,0.287,0.2834,0.2829,0.2825,0.2797,0.2794,0.2805,0.2804,0.2775,0.2773,0.2772,0.2787,0.2765,0.2764,0.2764,0.2777,0.2778,0.2779,0,0,0,0,0,0,0.2894,0.2892,0.2856,0.2865,0.286,0.2834,0.2829,0.2824,0.2808,0.2796,0.2792,0.2795,0.2775,0.2773,0.2781,0.2785,0.2764,0.2763,0.2775,0.2777,0.2778,0.28,0,0,0,0,0,0,0.2895,0.2892,0.2884,0.2866,0.286,0.2838,0.2829,0.2823,0.2809,0.2806,0.2786,0.2784,0.2775,0.2782,0.278,0.2784,0.2762,0.2774,0.2776,0.2778,0.2799,0.2802,0.2806,0,0,0,0,0,0.2897,0.2873,0.2883,0.288,0.2852,0.2838,0.2832,0.2812,0.2808,0.2798,0.2801,0.2785,0.2791,0.2782,0.2779,0.2783,0.2773,0.2776,0.2778,0.2797,0.2802,0.2806,0,0,0,0,0,0,0.2854,0.2868,0.2878,0.2854,0.2854,0.2834,0.2821,0.2812,0.2802,0.281,0.2794,0.2793,0.2802,0.2793,0.2784,0.2794,0.278,0.2782,0.2796,0.28,0.2804,0.2831,0.2762,0,0,0,0,0,0.2852,0.2848,0.2859,0.2835,0.2848,0.2839,0.2828,0.2825,0.2819,0.2813,0.2798,0.2798,0.2806,0.2805,0.2804,0.2806,0.2826,0.2809,0.2812,0.2815,0.2837,0.2865,0.2873,0.2785,0.2785,0.2785,0,0,0.282,0.2832,0.2823,0.2829,0.2833,0.2846,0.2832,0.2827,0.2832,0.2816,0.2809,0.2808,0.2811,0.2819,0.2821,0.2812,0.2853,0.2818,0.282,0.2841,0.2868,0.2877,0.2884,0.2787,0.2786,0.2786,0,0,0.2781,0.2786,0.279,0.2806,0.283,0.2836,0.284,0.2837,0.2833,0.2838,0.2834,0.2839,0.2834,0.2837,0.2841,0.2864,0.2872,0.2862,0.2898,0.2924,0.2932,0.2939,0.2985,0.2996,0.2862,0.2862,0.2862,0,0.2744,0.2758,0.2781,0.2807,0.2816,0.2839,0.2851,0.2857,0.2847,0.2849,0.2845,0.2855,0.2845,0.287,0.2886,0.2871,0.2903,0.2878,0.2929,0.2936,0.2943,0.2989,0.3001,0.2863,0.2863,0.2863,0.2863,0,0.2728,0.2745,0.275,0.2802,0.2815,0.2822,0.2861,0.2866,0.2872,0.2875,0.2894,0.2894,0.2896,0.2897,0.2904,0.2944,0.2958,0.293,0.2917,0.2953,0.3,0.3011,0.2865,0.2865,0.2864,0.2864,0,0,0.2624,0.272,0.2721,0.2756,0.2815,0.2822,0.2858,0.2883,0.2899,0.291,0.292,0.2945,0.2944,0.2953,0.2951,0.2989,0.3058,0.2993,0.2994,0.304,0.3149,0.3182,0.3198,0.3045,0.3047,0.3048,0.3166,0,0.2602,0.265,0.2702,0.2737,0.277,0.282,0.2848,0.2881,0.2902,0.2918,0.2946,0.2957,0.2966,0.2969,0.301,0.3041,0.309,0.3031,0.3109,0.3112,0.3136,0.3212,0.3277,0.339,0.3178,0.318,0.3181,0,0.2576,0.2615,0.2652,0.2732,0.275,0.2772,0.2823,0.2849,0.2902,0.2925,0.2959,0.2973,0.303,0.3023,0.3127,0.3095,0.3137,0.317,0.3174,0.3209,0.3167,0.3318,0.3419,0.3299,0.3199,0.3198,0.3196,0,0.2506,0.2578,0.2605,0.2629,0.272,0.2738,0.2776,0.2837,0.2865,0.2921,0.2937,0.301,0.3022,0.311,0.3171,0.316,0.3291,0.3261,0.3339,0.3342,0.3416,0.3422,0.3412,0.3347,0.3347,0.3347,0.3347,0,0.2471,0.2505,0.2573,0.259,0.2623,0.2693,0.2728,0.278,0.2841,0.2882,0.2924,0.2964,0.3046,0.3114,0.3196,0.3316,0.3302,0.3385,0.3385,0.3426,0.3431,0.3343,0.3211,0.3351,0.335,0.3349,0.3349,0,0.2444,0.2482,0.2523,0.2585,0.2601,0.2628,0.2708,0.2737,0.2791,0.2844,0.2861,0.2932,0.3046,0.3135,0.3265,0.3325,0.3361,0.3477,0.3533,0.3539,0.3516,0.3382,0.325,0.3151,0.3618,0.3619,0.3621,0,0.2443,0.2449,0.2503,0.2516,0.2553,0.2596,0.2631,0.2709,0.2749,0.2836,0.2859,0.2951,0.3039,0.3238,0.3392,0.3565,0.3399,0.3692,0.3679,0.3557,0.3408,0.3195,0.3104,0.3793,0.3796,0.3798,0.38,0,0.2416,0.2431,0.2467,0.2502,0.2528,0.2571,0.2624,0.265,0.2744,0.2783,0.2867,0.2934,0.3143,0.334,0.3535,0.3661,0.3527,0.3742,0.3603,0.355,0.3331,0.3222,0.3665,0.3819,0.3817,0.3816,0.3815,0.3814,0.2385,0.2411,0.2437,0.2497,0.2518,0.2551,0.2572,0.2628,0.2682,0.2752,0.285,0.2966,0.327,0.3573,0.3653,0.3824,0.3625,0.3827,0.3683,0.3485,0.3355,0.3851,0.3995,0.3994,0.3993,0.3993,0.3992,0,0.2342,0.2393,0.2427,0.2479,0.2506,0.2535,0.2573,0.258,0.2625,0.2734,0.2815,0.3136,0.3376,0.3615,0.3894,0.3801,0.3651,0.368,0.3407,0.3325,0.3814,0.3791,0.3913,0.3913,0.3913,0.3913,0.3913,0.3913,0.2321,0.2352,0.2409,0.2459,0.2495,0.2501,0.2517,0.2511,0.257,0.2692,0.2852,0.3003,0.335,0.3612,0.3691,0.3654,0.3278,0.3187,0.2976,0.3351,0.3353,0.3355,0.3306,0.3324,0.3323,0.2523,0.2516,0.2511]},{"header":{"parameterUnit":"m.s-1","parameterCategory":2,"la1":30.2991,"la2":30.254,"lo1":-89.0895,"lo2":-89.0444,"dx":0.0017,"dy":0.0017,"nx":28,"ny":28,"refTime":"2023-01-27T09:00:00:Z","depth":"0","parameterNumber":3,"parameterNumberName":"V-component_of_CURRENTS"},"data":[0,0,0,0,0,0,0,0,0,0,0,0,0,0,0,0,0,0,0,0,0,0,0,0,0,0,0,0,0,0,0,0,0,0,0,0,0,0,0,0,0,0,0,0,0,0,0,0,0,0,0,0,0,0,0,0,0,0,-0.1964,-0.1965,0,-0.1949,-0.1948,-0.1947,-0.1942,-0.1943,-0.1944,-0.1945,-0.2001,-0.2002,-0.2003,0,0,0,0,0,0,0,0,0,0,0,0,0,-0.1882,-0.1883,-0.1964,-0.1965,-0.1966,-0.1949,-0.1948,-0.1947,-0.1942,-0.1943,-0.1945,-0.1946,-0.2001,-0.2002,-0.2003,0,0,0,0,0,0,0,0,0,0,0,0,0,-0.1888,-0.1884,-0.1964,-0.1968,-0.1969,-0.1949,-0.1948,-0.1947,-0.1942,-0.1943,-0.1945,-0.1946,-0.2001,-0.2002,-0.2003,-0.198,0,0,-0.2006,-0.2006,0,0,0,0,0,0,0,0,-0.1888,-0.189,-0.1967,-0.1968,-0.1969,-0.1957,-0.194,-0.1965,-0.1942,-0.1942,-0.1945,-0.1947,-0.1999,-0.2,-0.1979,-0.1983,-0.1985,-0.2006,-0.2006,-0.2007,-0.2007,0,0,0,0,0,0,0,-0.1888,-0.189,-0.1949,-0.1968,-0.1969,-0.1935,-0.1937,-0.1943,-0.1956,-0.1942,-0.1944,-0.1957,-0.1999,-0.1978,-0.1981,-0.1986,-0.2006,-0.2006,-0.2007,-0.2007,-0.2039,-0.2039,0,0,0,0,0,0,-0.1913,-0.1891,-0.1949,-0.1949,-0.1942,-0.1936,-0.1938,-0.1952,-0.1955,-0.1959,-0.1956,-0.1957,-0.1976,-0.198,-0.1983,-0.1968,-0.2007,-0.2007,-0.2008,-0.2039,-0.2039,-0.2039,0,0,0,0,0,0,-0.1911,-0.1919,-0.195,-0.1927,-0.193,-0.1938,-0.1952,-0.1951,-0.1935,-0.1967,-0.197,-0.1944,-0.1977,-0.1982,-0.1991,-0.1971,-0.2008,-0.2009,-0.2038,-0.2039,-0.2039,-0.1933,0,0,0,0,0,0,-0.1909,-0.1918,-0.1898,-0.1929,-0.1933,-0.1923,-0.1952,-0.195,-0.1946,-0.1947,-0.1957,-0.1963,-0.1978,-0.199,-0.1992,-0.1973,-0.2009,-0.2038,-0.2038,-0.2039,-0.1936,-0.1929,-0.1924,0,0,0,0,0,-0.1906,-0.187,-0.1897,-0.1903,-0.1918,-0.1923,-0.1918,-0.1923,-0.1944,-0.1916,-0.1942,-0.1963,-0.1996,-0.199,-0.1993,-0.1973,-0.2038,-0.2038,-0.2039,-0.1939,-0.1931,-0.1924,0,0,0,0,0,0,-0.1818,-0.1869,-0.1898,-0.188,-0.1902,-0.1925,-0.1895,-0.1919,-0.1911,-0.1921,-0.1953,-0.1959,-0.1959,-0.199,-0.1983,-0.1991,-0.2025,-0.2027,-0.1948,-0.1941,-0.1935,-0.1984,-0.201,0,0,0,0,0,-0.1798,-0.1783,-0.1843,-0.1823,-0.184,-0.1872,-0.1866,-0.1887,-0.1906,-0.1902,-0.191,-0.194,-0.196,-0.1971,-0.1983,-0.1981,-0.2002,-0.198,-0.1973,-0.1968,-0.2013,-0.1961,-0.1953,-0.2041,-0.2041,-0.2041,0,0,-0.1754,-0.1784,-0.1772,-0.1803,-0.1821,-0.1834,-0.1867,-0.1869,-0.1874,-0.1913,-0.1891,-0.1907,-0.1956,-0.1948,-0.1953,-0.1973,-0.1958,-0.1969,-0.1963,-0.2013,-0.196,-0.1951,-0.1943,-0.2042,-0.2042,-0.2042,0,0,-0.1679,-0.1701,-0.1676,-0.1706,-0.175,-0.1778,-0.1786,-0.1815,-0.1815,-0.1818,-0.1849,-0.1855,-0.1878,-0.1895,-0.1918,-0.1893,-0.192,-0.1906,-0.1915,-0.1859,-0.1851,-0.1844,-0.1863,-0.1859,-0.1908,-0.1908,-0.1908,0,-0.1627,-0.1628,-0.1662,-0.1674,-0.1696,-0.1762,-0.1766,-0.1775,-0.1794,-0.1796,-0.1807,-0.1836,-0.1856,-0.1874,-0.1883,-0.1875,-0.1884,-0.1923,-0.1847,-0.184,-0.1835,-0.1857,-0.1853,-0.1903,-0.1903,-0.1904,-0.1904,0,-0.1556,-0.157,-0.1562,-0.1609,-0.1624,-0.1636,-0.1698,-0.1695,-0.172,-0.1738,-0.1742,-0.1762,-0.1784,-0.179,-0.1844,-0.1829,-0.1861,-0.1828,-0.1852,-0.1819,-0.1845,-0.1843,-0.1896,-0.1898,-0.1899,-0.19,0,0,-0.1441,-0.1498,-0.1506,-0.1524,-0.1604,-0.1608,-0.1631,-0.166,-0.1659,-0.168,-0.1659,-0.1718,-0.173,-0.1764,-0.1793,-0.1794,-0.1757,-0.182,-0.1819,-0.1822,-0.1695,-0.1674,-0.167,-0.1694,-0.1693,-0.1692,-0.173,0,-0.139,-0.1393,-0.1438,-0.1448,-0.1465,-0.1542,-0.1551,-0.1587,-0.1607,-0.1588,-0.164,-0.1628,-0.1717,-0.1709,-0.1723,-0.173,-0.1749,-0.1756,-0.1749,-0.1752,-0.1717,-0.1665,-0.1556,-0.1576,-0.1728,-0.1728,-0.1728,0,-0.1338,-0.1344,-0.1347,-0.1391,-0.1403,-0.1408,-0.144,-0.1452,-0.1481,-0.1497,-0.1522,-0.1545,-0.1577,-0.162,-0.1662,-0.166,-0.1706,-0.1731,-0.1729,-0.1758,-0.1725,-0.1637,-0.1567,-0.1633,-0.1725,-0.1725,-0.1725,0,-0.1272,-0.1295,-0.1289,-0.1312,-0.1361,-0.1355,-0.1368,-0.1409,-0.141,-0.1415,-0.1404,-0.1446,-0.1451,-0.1488,-0.1582,-0.16,-0.1621,-0.1609,-0.1657,-0.1658,-0.1597,-0.1593,-0.1576,-0.1649,-0.1649,-0.1649,-0.1648,0,-0.124,-0.1241,-0.1246,-0.1253,-0.121,-0.1273,-0.1239,-0.1267,-0.1286,-0.127,-0.1332,-0.1329,-0.142,-0.145,-0.1529,-0.159,-0.1558,-0.1679,-0.1651,-0.156,-0.1553,-0.1636,-0.1711,-0.165,-0.165,-0.1649,-0.1649,0,-0.1214,-0.1233,-0.1204,-0.12,-0.119,-0.1152,-0.1154,-0.1134,-0.1172,-0.1144,-0.1139,-0.1228,-0.1268,-0.1367,-0.1434,-0.1515,-0.1582,-0.16,-0.1536,-0.1501,-0.159,-0.1664,-0.1722,-0.1753,-0.1636,-0.1636,-0.1635,0,-0.1222,-0.1208,-0.114,-0.1103,-0.1096,-0.1054,-0.1036,-0.1067,-0.1052,-0.1083,-0.1058,-0.1114,-0.1122,-0.123,-0.1351,-0.1447,-0.1573,-0.1473,-0.1485,-0.1595,-0.1657,-0.1729,-0.1757,-0.1375,-0.1373,-0.1371,-0.1369,0,-0.1212,-0.1172,-0.1137,-0.1042,-0.0988,-0.0935,-0.0903,-0.0871,-0.091,-0.0875,-0.0853,-0.0846,-0.0982,-0.1012,-0.1194,-0.1291,-0.1481,-0.1436,-0.1521,-0.1448,-0.1552,-0.1566,-0.1419,-0.135,-0.1352,-0.1354,-0.1355,-0.1355,-0.1187,-0.1132,-0.1065,-0.0977,-0.0913,-0.0829,-0.0752,-0.0715,-0.065,-0.0527,-0.0613,-0.0454,-0.0623,-0.0828,-0.1049,-0.1295,-0.1386,-0.1349,-0.1435,-0.1505,-0.1513,-0.1378,-0.1284,-0.1286,-0.1287,-0.1288,-0.1289,0,-0.1123,-0.1073,-0.1012,-0.089,-0.0798,-0.0779,-0.0682,-0.057,-0.0427,-0.0236,-0.0138,0.0041,-0.0184,-0.0476,-0.0849,-0.1164,-0.133,-0.1358,-0.1417,-0.1451,-0.1274,-0.1236,-0.1158,-0.1158,-0.1158,-0.1158,-0.1158,-0.1158,-0.1087,-0.0993,-0.0963,-0.0814,-0.073,-0.0564,-0.0476,-0.0289,-0.0102,0.0313,0.0609,0.0753,0.0657,-0.0262,-0.0916,-0.1166,-0.14,-0.1491,-0.165,-0.1504,-0.1509,-0.1514,-0.1493,-0.147,-0.1471,-0.1738,-0.174,-0.1742]}],[{"header":{"parameterUnit":"m.s-1","parameterCategory":2,"la1":30.2991,"la2":30.254,"lo1":-89.0895,"lo2":-89.0444,"dx":0.0017,"dy":0.0017,"nx":28,"ny":28,"refTime":"2023-01-27T09:00:00:Z","depth":"2","parameterNumber":2,"parameterNumberName":"U-component_of_CURRENTS"},"data":[0,0,0,0,0,0,0,0,0,0,0,0,0,0,0,0,0,0,0,0,0,0,0,0,0,0,0,0,0,0,0,0,0,0,0,0,0,0,0,0,0,0,0,0,0,0,0,0,0,0,0,0,0,0,0,0,0,0,0.1972,0.1972,0,0.2024,0.2025,0.2026,0.2044,0.2043,0.2043,0.2042,0.2155,0.2158,0.2162,0,0,0,0,0,0,0,0,0,0,0,0,0,0.199,0.199,0.1972,0.1972,0.1973,0.2024,0.2025,0.2026,0.2044,0.2043,0.2043,0.2042,0.2154,0.2158,0.2162,0,0,0,0,0,0,0,0,0,0,0,0,0,0.201,0.1989,0.1972,0.1985,0.1986,0.2024,0.2025,0.2026,0.2044,0.2043,0.2043,0.2042,0.2152,0.2157,0.2162,0.2212,0,0,0.2179,0.2181,0,0,0,0,0,0,0,0,0.2009,0.201,0.1983,0.1984,0.1986,0.2023,0.2072,0.209,0.2044,0.2027,0.2042,0.2041,0.2114,0.2123,0.2139,0.2217,0.2222,0.2179,0.2182,0.2185,0.2186,0,0,0,0,0,0,0,0.2007,0.2008,0.1997,0.1983,0.1985,0.2022,0.2024,0.2076,0.2079,0.2028,0.2029,0.2028,0.2116,0.2134,0.2142,0.2224,0.2179,0.2184,0.2187,0.2189,0.2332,0.2332,0,0,0,0,0,0,0.1988,0.2006,0.1995,0.1998,0.1991,0.2022,0.2024,0.2015,0.2077,0.2084,0.2029,0.2029,0.2125,0.2136,0.2146,0.223,0.2184,0.2189,0.2192,0.2331,0.2332,0.2332,0,0,0,0,0,0,0.1988,0.1986,0.1993,0.2001,0.2004,0.2021,0.2013,0.2017,0.2036,0.2076,0.2085,0.2043,0.2125,0.2139,0.22,0.2233,0.2192,0.2197,0.233,0.2331,0.2332,0.2384,0,0,0,0,0,0,0.1988,0.1986,0.1999,0.1999,0.2002,0.2032,0.2013,0.2018,0.2034,0.2035,0.2091,0.21,0.2126,0.2192,0.2205,0.224,0.2201,0.2329,0.2331,0.2332,0.2382,0.2387,0.2391,0,0,0,0,0,0.1989,0.2022,0.1999,0.1999,0.201,0.2033,0.204,0.2053,0.2036,0.2063,0.2089,0.2099,0.2207,0.2197,0.2213,0.225,0.2329,0.233,0.2332,0.2379,0.2386,0.2391,0,0,0,0,0,0,0.2034,0.2025,0.2002,0.2027,0.2028,0.2035,0.2069,0.2056,0.2097,0.2096,0.2123,0.2136,0.2204,0.2212,0.22,0.2288,0.2264,0.2269,0.2295,0.2301,0.2306,0.2303,0.2205,0,0,0,0,0,0.2045,0.2069,0.2048,0.2068,0.2069,0.2062,0.2077,0.2071,0.2092,0.2108,0.2146,0.2178,0.2223,0.2248,0.2295,0.235,0.2375,0.2376,0.238,0.2385,0.239,0.2473,0.2487,0.2337,0.2337,0.2337,0,0,0.2054,0.2065,0.2068,0.2081,0.2082,0.2093,0.2072,0.2091,0.211,0.2117,0.2181,0.2211,0.2242,0.2308,0.2336,0.2318,0.2437,0.2386,0.239,0.2393,0.2477,0.2492,0.2505,0.2338,0.2338,0.2338,0,0,0.2084,0.2101,0.2114,0.2128,0.2133,0.2137,0.2136,0.2143,0.2163,0.2202,0.222,0.227,0.2324,0.237,0.239,0.2448,0.2467,0.2447,0.247,0.2552,0.2566,0.2578,0.2618,0.2634,0.2441,0.2441,0.2441,0,0.2076,0.2104,0.2125,0.2144,0.2155,0.215,0.2151,0.2185,0.2215,0.2246,0.2224,0.2318,0.2356,0.2435,0.2451,0.2465,0.2492,0.2451,0.2562,0.2574,0.2586,0.2624,0.2641,0.2444,0.2444,0.2443,0.2443,0,0.2119,0.2131,0.2151,0.2166,0.2191,0.2206,0.2224,0.2264,0.2268,0.2294,0.2368,0.2407,0.2464,0.2475,0.248,0.2581,0.2566,0.2569,0.2553,0.2605,0.264,0.2657,0.2448,0.2447,0.2446,0.2445,0,0,0.2077,0.2151,0.2158,0.2158,0.22,0.2215,0.2271,0.2316,0.2361,0.2394,0.2447,0.2519,0.2543,0.2566,0.2587,0.2636,0.2747,0.2632,0.2635,0.268,0.2901,0.2871,0.2886,0.2772,0.2776,0.2779,0.2888,0,0.2073,0.2112,0.2167,0.2191,0.2185,0.2234,0.2295,0.2351,0.2399,0.2472,0.2513,0.258,0.2579,0.2601,0.2665,0.2729,0.2794,0.2715,0.2835,0.2838,0.2814,0.2906,0.2582,0.2651,0.2905,0.2907,0.2909,0,0.2069,0.2101,0.2115,0.2178,0.2188,0.2224,0.2313,0.2367,0.2483,0.2515,0.2587,0.264,0.2736,0.2708,0.2861,0.2809,0.2871,0.2899,0.2905,0.2872,0.284,0.2641,0.2672,0.2937,0.2935,0.2933,0.2931,0,0.1999,0.2061,0.2075,0.2094,0.2169,0.2206,0.2266,0.2378,0.2434,0.2549,0.2584,0.2715,0.2741,0.2864,0.2943,0.2923,0.3078,0.3069,0.3097,0.3093,0.2838,0.2807,0.3196,0.3196,0.3196,0.3196,0.3195,0,0.1956,0.1978,0.2048,0.2049,0.2108,0.2168,0.2247,0.2326,0.2427,0.2501,0.2608,0.2652,0.2779,0.2883,0.2978,0.3085,0.313,0.3125,0.3139,0.2844,0.2814,0.3072,0.3056,0.32,0.3199,0.3198,0.3197,0,0.1893,0.1922,0.1948,0.2028,0.2057,0.2107,0.2225,0.2285,0.2376,0.2462,0.2495,0.2612,0.2745,0.2879,0.3042,0.3098,0.3225,0.3249,0.2874,0.2844,0.3175,0.316,0.332,0.3321,0.3321,0.3321,0.3321,0,0.1874,0.1859,0.1934,0.1948,0.1993,0.2068,0.2119,0.2236,0.23,0.2432,0.2465,0.2596,0.2714,0.2927,0.2989,0.3161,0.3238,0.2976,0.2907,0.32,0.3198,0.3182,0.3168,0.2571,0.2565,0.256,0.2557,0,0.1821,0.1844,0.1872,0.1913,0.1953,0.2022,0.2109,0.2144,0.2273,0.2336,0.2438,0.2544,0.2694,0.2682,0.2854,0.2919,0.2933,0.2888,0.3301,0.2607,0.2508,0.2501,0.2508,0.2513,0.2517,0.252,0.2523,0.2525,0.1787,0.1816,0.1827,0.1894,0.1929,0.1977,0.2005,0.2072,0.2138,0.2207,0.2334,0.2323,0.2386,0.2446,0.2531,0.2562,0.2764,0.2672,0.268,0.2695,0.2606,0.2516,0.2502,0.2506,0.251,0.2513,0.2516,0,0.1731,0.1771,0.1809,0.1864,0.19,0.1952,0.1993,0.1955,0.1979,0.202,0.2092,0.1843,0.1907,0.1993,0.1967,0.2135,0.2074,0.21,0.193,0.1973,0.2011,0.1882,0.1589,0.1587,0.1585,0.1584,0,0,0.1692,0.1712,0.1768,0.1818,0.1869,0.1861,0.1869,0.1781,0.1723,0.1577,0.1475,0.1653,0.1757,0.1507,0.1634,0.1582,0.1754,0.155,0.227,0.2094,0.2129,0.2308,0.2154,0,0,0,0,0]},{"header":{"parameterUnit":"m.s-1","parameterCategory":2,"la1":30.2991,"la2":30.254,"lo1":-89.0895,"lo2":-89.0444,"dx":0.0017,"dy":0.0017,"nx":28,"ny":28,"refTime":"2023-01-27T09:00:00:Z","depth":"2","parameterNumber":3,"parameterNumberName":"V-component_of_CURRENTS"},"data":[0,0,0,0,0,0,0,0,0,0,0,0,0,0,0,0,0,0,0,0,0,0,0,0,0,0,0,0,0,0,0,0,0,0,0,0,0,0,0,0,0,0,0,0,0,0,0,0,0,0,0,0,0,0,0,0,0,0,0.0434,0.0436,0,0.0361,0.0357,0.0353,0.0327,0.0331,0.0335,0.0339,0.0474,0.0474,0.0474,0,0,0,0,0,0,0,0,0,0,0,0,0,0.0448,0.0445,0.0434,0.0436,0.0439,0.0362,0.0357,0.0352,0.0327,0.0331,0.0336,0.034,0.0474,0.0474,0.0474,0,0,0,0,0,0,0,0,0,0,0,0,0,0.0378,0.0444,0.0433,0.0446,0.0449,0.0363,0.0357,0.0351,0.0326,0.0331,0.0337,0.0342,0.0474,0.0474,0.0474,0.0359,0,0,0.0474,0.0474,0,0,0,0,0,0,0,0,0.0382,0.0372,0.0441,0.0445,0.0449,0.0393,0.0414,0.0377,0.0324,0.0331,0.0339,0.0345,0.0488,0.0487,0.0401,0.0365,0.0371,0.0474,0.0474,0.0474,0.0474,0,0,0,0,0,0,0,0.0387,0.0376,0.0365,0.0445,0.0449,0.0423,0.0416,0.0402,0.0351,0.0331,0.0339,0.0391,0.0487,0.0401,0.0406,0.0373,0.0474,0.0474,0.0474,0.0474,0.035,0.0346,0,0,0,0,0,0,0.0473,0.0379,0.0368,0.0367,0.0473,0.0421,0.0411,0.0373,0.0347,0.0358,0.0386,0.0391,0.0398,0.0406,0.0412,0.0396,0.0474,0.0474,0.0474,0.0353,0.0349,0.0345,0,0,0,0,0,0,0.0471,0.0468,0.0372,0.0409,0.0401,0.042,0.0374,0.037,0.0261,0.0394,0.0402,0.0288,0.0403,0.0412,0.0483,0.0399,0.0474,0.0474,0.0357,0.0352,0.0347,0.0291,0,0,0,0,0,0,0.0469,0.0464,0.0393,0.0411,0.0403,0.0308,0.0373,0.0366,0.0307,0.0309,0.0313,0.0332,0.0408,0.0483,0.0483,0.0401,0.0474,0.0361,0.0355,0.0349,0.0297,0.0285,0.0275,0,0,0,0,0,0.0468,0.0418,0.0386,0.0386,0.0324,0.0309,0.0291,0.0304,0.0296,0.0221,0.0317,0.033,0.044,0.0484,0.0484,0.0399,0.0364,0.0356,0.0349,0.0303,0.0287,0.0275,0,0,0,0,0,0,0.0356,0.0413,0.0381,0.0331,0.0307,0.032,0.0284,0.025,0.0228,0.0272,0.0333,0.0359,0.0357,0.0383,0.0428,0.0336,0.038,0.0372,0.0344,0.033,0.0319,0.0451,0.0474,0,0,0,0,0,0.0304,0.029,0.0308,0.0252,0.0252,0.0221,0.0194,0.0211,0.0249,0.0232,0.0239,0.0277,0.0307,0.0341,0.0347,0.0326,0.0359,0.025,0.0239,0.023,0.0332,0.0277,0.0272,0.0321,0.0321,0.0321,0,0,0.0246,0.0283,0.0261,0.023,0.0213,0.0227,0.0207,0.0201,0.0224,0.0263,0.0249,0.0223,0.0287,0.0285,0.0278,0.0318,0.0219,0.022,0.0213,0.0324,0.0269,0.0265,0.0262,0.0316,0.0317,0.0317,0,0,0.0213,0.0149,0.0148,0.0147,0.0181,0.0191,0.0176,0.0148,0.0138,0.0158,0.0174,0.0148,0.016,0.0189,0.0222,0.0139,0.014,0.0056,0.0141,0.008,0.0078,0.0078,0.0074,0.0073,0.0075,0.0075,0.0075,0,0.0192,0.0147,0.013,0.016,0.0205,0.0178,0.0207,0.0184,0.0175,0.0166,0.019,0.0116,0.0146,0.0154,0.0175,0.0117,0.0112,0.0195,0.0072,0.0072,0.0072,0.007,0.007,0.0072,0.0072,0.0072,0.0073,0,0.0152,0.014,0.0154,0.02,0.0199,0.0233,0.0276,0.0235,0.0231,0.0194,0.0138,0.0149,0.0115,0.0055,0.0159,0.01,0.0102,0.0042,0.0125,0.0066,0.0063,0.0065,0.0066,0.0068,0.0069,0.007,0,0,0.0184,0.015,0.0174,0.02,0.0252,0.028,0.0326,0.0336,0.0338,0.0265,0.0237,0.0243,0.0131,0.0165,0.0115,0.0134,0.0119,0.0139,0.0136,0.0173,0.0032,-0.0006,-0.0008,0.0023,0.0024,0.0025,0.0018,0,0.021,0.0263,0.0244,0.0319,0.036,0.0384,0.043,0.0433,0.0398,0.0339,0.0286,0.022,0.0196,0.0153,0.0149,0.0104,0.0129,0.0133,0.0061,0.0062,0.0063,-0.0006,0.0027,0.0022,0.002,0.002,0.0021,0,0.025,0.0279,0.033,0.0416,0.0438,0.0466,0.0534,0.056,0.0491,0.0452,0.033,0.0239,0.0197,0.0198,0.0126,0.012,0.0133,0.0129,0.0123,0.0146,0.0028,0.0085,0.0025,0.0024,0.0023,0.0023,0.0023,0,0.034,0.0401,0.0444,0.047,0.0515,0.0548,0.0581,0.0552,0.0568,0.0453,0.0387,0.0271,0.022,0.0168,0.0138,0.0126,0.0115,0.0034,0.0023,0.0019,0.0079,0.008,0.0072,0.0072,0.0072,0.0072,0.0072,0,0.0459,0.0499,0.0471,0.0499,0.0584,0.0591,0.064,0.0639,0.0589,0.0547,0.0386,0.034,0.0231,0.0174,0.0147,0.0079,0.0065,0.0088,0.0019,0.005,0.0048,0.0088,0.009,0.0072,0.0072,0.0072,0.0072,0,0.0542,0.0528,0.0579,0.0599,0.0616,0.0667,0.0709,0.073,0.0629,0.0566,0.0525,0.0413,0.0298,0.0188,0.0152,0.0084,0.0027,0.004,0.0119,0.0061,-0.0017,-0.0019,-0.0019,-0.002,-0.0021,-0.0022,-0.0023,0,0.0587,0.0594,0.0635,0.0679,0.0673,0.0729,0.0787,0.0769,0.0777,0.0606,0.0606,0.0466,0.0415,0.0282,0.0167,0.0052,0.0046,0.0021,0.0006,0.0044,-0.0025,-0.0024,-0.0025,0.0049,0.0049,0.0049,0.0049,0,0.0642,0.0625,0.0668,0.0734,0.0795,0.0888,0.0939,0.0984,0.092,0.085,0.0775,0.0708,0.0497,0.0415,0.0242,0.0152,0.0005,0.0012,0.0008,0.0054,0.0102,0.0036,0.0035,0.0048,0.0048,0.0048,0.0048,0.0048,0.0692,0.0728,0.0764,0.0838,0.0906,0.1032,0.1144,0.1178,0.1241,0.1204,0.1095,0.0999,0.0778,0.0604,0.0323,-0.0006,0.0046,-0.002,-0.0017,-0.0015,-0.0019,0.0022,-0.0043,-0.0044,-0.0044,-0.0044,-0.0045,0,0.0811,0.0809,0.0868,0.0999,0.111,0.1095,0.1245,0.1372,0.1472,0.1461,0.1453,0.1228,0.1076,0.069,0.0229,-0.0006,-0.0034,-0.013,-0.0088,-0.0082,-0.0078,-0.0085,-0.0127,-0.0129,-0.013,-0.0132,0,0,0.0877,0.0955,0.0965,0.1162,0.1229,0.1381,0.1488,0.1625,0.1694,0.1761,0.1699,0.1787,0.1246,0.0933,0.0536,0.0181,0.0111,0.011,0.0221,0.033,0.0337,0.0043,0.0046,0,0,0,0,0]}],[{"header":{"parameterUnit":"m.s-1","parameterCategory":2,"la1":30.2991,"la2":30.254,"lo1":-89.0895,"lo2":-89.0444,"dx":0.0017,"dy":0.0017,"nx":28,"ny":28,"refTime":"2023-01-27T09:00:00:Z","depth":"4","parameterNumber":2,"parameterNumberName":"U-component_of_CURRENTS"},"data":[0,0,0,0,0,0,0,0,0,0,0,0,0,0,0,0,0,0,0,0,0,0,0,0,0,0,0,0,0,0,0,0,0,0,0,0,0,0,0,0,0,0,0,0,0,0,0,0,0,0,0,0,0,0,0,0,0,0,0.0419,0.042,0,0.0529,0.053,0.0531,0.067,0.0672,0.0675,0.0677,0.073,0.0729,0.0728,0,0,0,0,0,0,0,0,0,0,0,0,0,0.0321,0.0322,0.0419,0.042,0.0422,0.0528,0.053,0.0531,0.067,0.0672,0.0675,0.0678,0.073,0.0729,0.0728,0,0,0,0,0,0,0,0,0,0,0,0,0,0.039,0.0323,0.0419,0.0504,0.0513,0.0528,0.053,0.0532,0.0669,0.0672,0.0676,0.0679,0.073,0.0729,0.0728,0.0654,0,0,0.0725,0.0724,0,0,0,0,0,0,0,0,0.0386,0.0394,0.049,0.0498,0.0508,0.0589,0.0515,0.057,0.0668,0.0609,0.0677,0.0681,0.0675,0.0679,0.0692,0.0657,0.0659,0.0725,0.0724,0.0724,0.0723,0,0,0,0,0,0,0,0.0381,0.039,0.0462,0.0491,0.0502,0.0534,0.0547,0.0526,0.062,0.0615,0.0625,0.0637,0.068,0.0693,0.0694,0.066,0.0725,0.0724,0.0723,0.0723,0.0711,0.0711,0,0,0,0,0,0,0.0365,0.0385,0.0459,0.0465,0.0454,0.0533,0.0548,0.0559,0.0622,0.0636,0.0634,0.0643,0.0693,0.0695,0.0697,0.0792,0.0724,0.0723,0.0722,0.0711,0.0711,0.0711,0,0,0,0,0,0,0.0362,0.037,0.0454,0.0428,0.0441,0.0531,0.0543,0.056,0.0637,0.0637,0.0651,0.0701,0.0696,0.0698,0.0745,0.0788,0.0722,0.0721,0.071,0.0711,0.0711,0.0866,0,0,0,0,0,0,0.0359,0.0368,0.0387,0.0427,0.0442,0.0495,0.054,0.056,0.0635,0.065,0.0697,0.0703,0.0699,0.0747,0.0744,0.0786,0.0721,0.071,0.0711,0.0711,0.0861,0.0872,0.0882,0,0,0,0,0,0.0355,0.0351,0.0387,0.0397,0.0459,0.0496,0.0507,0.0582,0.0635,0.0665,0.0718,0.0705,0.0748,0.0747,0.0744,0.0786,0.071,0.071,0.0711,0.0856,0.087,0.0881,0,0,0,0,0,0,0.0321,0.0366,0.0406,0.0421,0.0474,0.0521,0.0545,0.0607,0.0671,0.0703,0.0718,0.0726,0.0781,0.0745,0.0744,0.0776,0.072,0.072,0.0832,0.0844,0.0854,0.087,0.072,0,0,0,0,0,0.0318,0.0343,0.0388,0.0415,0.0427,0.0499,0.0532,0.0596,0.0647,0.0685,0.0736,0.0758,0.0763,0.0782,0.078,0.0796,0.0736,0.0812,0.0822,0.0832,0.0837,0.0781,0.0788,0.0714,0.0714,0.0714,0,0,0.0316,0.0347,0.0364,0.0413,0.0451,0.0491,0.0529,0.0593,0.0666,0.067,0.0791,0.0804,0.0775,0.0817,0.0834,0.0806,0.0819,0.0833,0.0842,0.0842,0.0783,0.079,0.0797,0.0714,0.0714,0.0714,0,0,0.0319,0.0344,0.0366,0.0409,0.0482,0.0513,0.0544,0.0633,0.0708,0.081,0.0825,0.0869,0.0909,0.0898,0.0888,0.0938,0.0878,0.094,0.1013,0.096,0.0967,0.0971,0.0906,0.0904,0.0944,0.0945,0.0945,0,0.0323,0.0355,0.0382,0.0423,0.0467,0.0529,0.058,0.0641,0.0764,0.0822,0.0872,0.0943,0.0941,0.0946,0.0992,0.0965,0.0926,0.0982,0.0977,0.0981,0.0983,0.0914,0.091,0.0952,0.0951,0.0951,0.095,0,0.0337,0.0387,0.0396,0.047,0.0523,0.0566,0.0649,0.0733,0.084,0.092,0.1014,0.1028,0.1065,0.1071,0.1069,0.1077,0.1041,0.1004,0.0957,0.1001,0.0924,0.0917,0.0963,0.096,0.0958,0.0956,0,0,0.03,0.0384,0.0406,0.0461,0.0556,0.0602,0.07,0.0794,0.0871,0.1005,0.1088,0.1147,0.1185,0.1171,0.1156,0.1136,0.1139,0.1109,0.1103,0.1064,0.1027,0.107,0.1065,0.112,0.112,0.1119,0.0969,0,0.0314,0.0378,0.0439,0.0544,0.0573,0.067,0.0754,0.087,0.097,0.1061,0.1101,0.1165,0.1205,0.1231,0.123,0.1159,0.1128,0.1183,0.0972,0.0965,0.1015,0.1061,0.1118,0.0963,0.0961,0.096,0.0959,0,0.0324,0.0362,0.0435,0.0577,0.0604,0.0688,0.0823,0.0914,0.1024,0.1116,0.1193,0.122,0.124,0.1245,0.1179,0.1225,0.1152,0.1089,0.108,0.1063,0.0996,0.0904,0.0944,0.0945,0.0946,0.0947,0.0948,0,0.0271,0.039,0.0444,0.0487,0.0623,0.0709,0.0801,0.0937,0.1004,0.1127,0.1183,0.1227,0.1234,0.1183,0.114,0.1155,0.103,0.1,0.0949,0.0948,0.0883,0.0879,0.0913,0.0913,0.0913,0.0914,0.0914,0,0.0262,0.032,0.0428,0.0457,0.0555,0.0691,0.0803,0.0914,0.1017,0.1074,0.1198,0.1208,0.1227,0.118,0.1123,0.1047,0.101,0.0974,0.0926,0.095,0.0955,0.0878,0.0876,0.0908,0.0909,0.091,0.0911,0,0.0216,0.0275,0.0337,0.0472,0.0526,0.0608,0.078,0.084,0.0981,0.1037,0.1071,0.1169,0.116,0.1146,0.1031,0.1014,0.0917,0.0872,0.0906,0.0858,0.0863,0.0871,0.0801,0.0802,0.0802,0.0803,0.0803,0,0.0192,0.02,0.0316,0.0352,0.0425,0.0549,0.0621,0.0796,0.0853,0.0988,0.0989,0.1033,0.109,0.0959,0.0975,0.0889,0.0872,0.0821,0.0871,0.0899,0.0857,0.0864,0.087,0.0804,0.0804,0.0804,0.0804,0,0.0116,0.0152,0.0204,0.0259,0.0345,0.0425,0.0552,0.0577,0.0753,0.0864,0.0891,0.0919,0.0917,0.0912,0.089,0.0812,0.0876,0.0825,0.0823,0.0869,0.0901,0.0861,0.0866,0.0806,0.0805,0.0805,0.0805,0,0.0059,0.0081,0.0129,0.0194,0.0257,0.0301,0.0385,0.0473,0.0549,0.0728,0.07,0.0785,0.0851,0.0864,0.0813,0.0814,0.08,0.0767,0.0768,0.0767,0.0849,0.089,0.0757,0,0,0,0,0,0.0011,0.0044,0.0062,0.0141,0.018,0.0223,0.0335,0.0418,0.0569,0.056,0.0646,0.0652,0.0698,0.073,0.0722,0.0811,0.0795,0.0804,0.0754,0.0815,0.0813,0.0927,0,0,0,0,0,0,-0.0002,0.0026,0.0041,0.005,0.0083,0.0139,0.0198,0.0297,0.0322,0.0468,0.0477,0.0615,0.0641,0.0667,0.0697,0.0717,0.0679,0.0869,0.0869,0.0816,0.0814,0.0813,0.0929,0,0,0,0,0]},{"header":{"parameterUnit":"m.s-1","parameterCategory":2,"la1":30.2991,"la2":30.254,"lo1":-89.0895,"lo2":-89.0444,"dx":0.0017,"dy":0.0017,"nx":28,"ny":28,"refTime":"2023-01-27T09:00:00:Z","depth":"4","parameterNumber":3,"parameterNumberName":"V-component_of_CURRENTS"},"data":[0,0,0,0,0,0,0,0,0,0,0,0,0,0,0,0,0,0,0,0,0,0,0,0,0,0,0,0,0,0,0,0,0,0,0,0,0,0,0,0,0,0,0,0,0,0,0,0,0,0,0,0,0,0,0,0,0,0,0.0394,0.0393,0,0.0336,0.0335,0.0334,0.0337,0.0338,0.0339,0.034,0.0264,0.0261,0.0258,0,0,0,0,0,0,0,0,0,0,0,0,0,0.0476,0.0475,0.0394,0.0393,0.0393,0.0336,0.0335,0.0333,0.0337,0.0338,0.034,0.0341,0.0265,0.0261,0.0257,0,0,0,0,0,0,0,0,0,0,0,0,0,0.0428,0.0474,0.0394,0.0391,0.039,0.0336,0.0335,0.0333,0.0336,0.0338,0.034,0.0342,0.0266,0.0261,0.0257,0.0191,0,0,0.0242,0.024,0,0,0,0,0,0,0,0,0.043,0.0424,0.0391,0.0391,0.039,0.0349,0.0336,0.0286,0.0336,0.0352,0.034,0.0343,0.0292,0.0285,0.0264,0.0187,0.0184,0.0242,0.0239,0.0237,0.0235,0,0,0,0,0,0,0,0.0434,0.0427,0.0366,0.0391,0.039,0.0382,0.0377,0.0326,0.0309,0.0351,0.0352,0.0352,0.0291,0.0269,0.0263,0.0183,0.0242,0.0238,0.0235,0.0233,0.0097,0.0096,0,0,0,0,0,0,0.0448,0.0429,0.0368,0.0365,0.042,0.038,0.0374,0.0357,0.031,0.0306,0.035,0.0352,0.0276,0.0268,0.026,0.0267,0.0237,0.0232,0.023,0.0097,0.0096,0.0096,0,0,0,0,0,0,0.045,0.0443,0.0371,0.0401,0.0392,0.0377,0.0358,0.0355,0.0395,0.031,0.0306,0.0401,0.0277,0.0267,0.0229,0.0261,0.023,0.0226,0.0098,0.0097,0.0096,0.0225,0,0,0,0,0,0,0.0452,0.0443,0.047,0.0401,0.0391,0.0375,0.0356,0.0353,0.039,0.0393,0.0351,0.0342,0.0278,0.0236,0.0224,0.0254,0.0222,0.0099,0.0098,0.0096,0.0222,0.0229,0.0235,0,0,0,0,0,0.0455,0.0467,0.047,0.0466,0.0415,0.0377,0.0371,0.0364,0.0392,0.0408,0.0361,0.0347,0.0219,0.0231,0.0217,0.0247,0.01,0.0098,0.0096,0.0219,0.0228,0.0234,0,0,0,0,0,0,0.0512,0.0467,0.0469,0.0468,0.0448,0.038,0.0392,0.0404,0.0382,0.0407,0.0332,0.0317,0.0291,0.0242,0.0258,0.0197,0.0159,0.0155,0.0257,0.0264,0.0271,0.0299,0.0218,0,0,0,0,0,0.0538,0.0552,0.0493,0.0509,0.0486,0.0458,0.0459,0.0469,0.0427,0.0426,0.0396,0.0342,0.026,0.0248,0.0177,0.0154,0.0083,0.016,0.0167,0.0173,0.0182,0.0064,0.0062,0.009,0.009,0.009,0,0,0.0569,0.0551,0.0561,0.0528,0.0498,0.0475,0.0462,0.0482,0.0495,0.0416,0.0433,0.0369,0.0253,0.021,0.0197,0.0188,0.0131,0.0171,0.0177,0.0183,0.0062,0.006,0.0057,0.0089,0.0089,0.0089,0,0,0.0612,0.0606,0.0617,0.0603,0.0596,0.0553,0.0578,0.0552,0.0567,0.0573,0.049,0.0438,0.0381,0.0273,0.021,0.0207,0.0159,0.0215,0.0287,0.0174,0.0171,0.0168,0.0099,0.0089,0.0231,0.0231,0.0231,0,0.0658,0.0644,0.062,0.062,0.062,0.0592,0.06,0.0584,0.0577,0.0578,0.0608,0.0463,0.0393,0.026,0.027,0.0224,0.0177,0.0277,0.0185,0.018,0.0174,0.0104,0.0091,0.0237,0.0236,0.0236,0.0235,0,0.0674,0.069,0.0686,0.0665,0.0676,0.0676,0.0646,0.0666,0.0699,0.069,0.0646,0.0534,0.0456,0.0419,0.0356,0.0271,0.0258,0.0201,0.0179,0.018,0.0106,0.009,0.0246,0.0244,0.0242,0.024,0,0,0.0702,0.0692,0.0708,0.0725,0.0708,0.0719,0.0716,0.0685,0.0692,0.0707,0.0689,0.0574,0.0568,0.0492,0.0398,0.031,0.0245,0.0281,0.0272,0.0237,0.0044,0.0129,0.0118,0.0193,0.019,0.0188,0.0018,0,0.0712,0.0723,0.0734,0.0777,0.0754,0.0758,0.0755,0.0768,0.0756,0.0731,0.064,0.0597,0.0575,0.0557,0.0467,0.027,0.0206,0.0299,0.0026,0.0019,0.0112,0.0103,0.0179,0.0006,0.0002,-0.0001,-0.0003,0,0.0715,0.0722,0.075,0.0809,0.0808,0.0874,0.0878,0.0877,0.081,0.0827,0.0776,0.0696,0.0566,0.0557,0.0291,0.0366,0.0251,0.0113,0.0101,0.0124,0.0073,-0.0009,-0.0033,-0.0031,-0.0028,-0.0026,-0.0024,0,0.0716,0.0755,0.0786,0.0802,0.0833,0.092,0.0964,0.0943,0.0931,0.0899,0.09,0.0737,0.0665,0.0482,0.0273,0.0286,-0.0026,-0.0071,-0.0111,-0.0106,-0.0188,-0.0184,-0.0236,-0.0236,-0.0236,-0.0235,-0.0235,0,0.0701,0.0752,0.0825,0.0854,0.0942,0.1001,0.1074,0.1095,0.107,0.1055,0.0988,0.0915,0.0651,0.0446,0.0268,0.0054,-0.002,-0.0092,-0.0148,-0.0127,-0.0114,-0.0198,-0.0191,-0.0242,-0.024,-0.0239,-0.0238,0,0.0719,0.0729,0.0794,0.0897,0.0946,0.1054,0.1179,0.1192,0.1217,0.1182,0.1189,0.1013,0.0801,0.0528,0.0174,0.0061,-0.018,-0.0231,-0.0154,-0.0206,-0.0183,-0.0168,-0.0306,-0.0305,-0.0304,-0.0303,-0.0302,0,0.0701,0.0712,0.085,0.0905,0.1,0.1134,0.1193,0.127,0.1284,0.1233,0.121,0.102,0.0893,0.0462,0.0199,-0.0129,-0.016,-0.0267,-0.0238,-0.015,-0.0193,-0.018,-0.0167,-0.03,-0.0299,-0.0299,-0.0299,0,0.0669,0.0749,0.0816,0.0914,0.1047,0.1152,0.129,0.1283,0.1328,0.1331,0.1225,0.1038,0.0793,0.047,0.0242,-0.0002,-0.0201,-0.0255,-0.0259,-0.0233,-0.0144,-0.0184,-0.0173,-0.0294,-0.0295,-0.0295,-0.0296,0,0.0674,0.0738,0.0823,0.0938,0.105,0.1181,0.1237,0.1284,0.1295,0.1267,0.1207,0.1003,0.0848,0.0536,0.0302,0.0103,0.005,-0.0019,-0.0038,-0.0045,0.01,0.0256,0.0185,0,0,0,0,0,0.0663,0.0757,0.0826,0.0982,0.1082,0.1189,0.1276,0.1305,0.1325,0.1268,0.1252,0.1053,0.0748,0.0583,0.0397,0.0311,0.0002,0.0088,-0.0091,-0.027,-0.0275,-0.0139,0,0,0,0,0,0,0.068,0.0766,0.0832,0.0975,0.1083,0.1233,0.1303,0.1317,0.1276,0.1256,0.1074,0.1045,0.0714,0.0873,0.0411,0.035,0.0217,-0.0047,-0.0051,-0.0267,-0.0272,-0.0276,-0.0138,0,0,0,0,0]}]]